This is the latest recevied weather packets stored in our database for station/object OM2RC-6. If no packets are shown the sender has not sent any weather packets the latest 10 day(s).
| Time | Temp. | Humidity | Pressure | Rain* | Wind** | Luminosity | Snow |
|---|---|---|---|---|---|---|---|
| 1777659847 | 13.33° C | 82% | 1026.3 hPa | - | - | - | - |
| 1777659547 | 13.89° C | 79% | 1026.2 hPa | - | - | - | - |
| 1777658940 | 14.44° C | 75% | 1026.1 hPa | - | - | - | - |
| 1777658639 | 15° C | 73% | 1026.1 hPa | - | - | - | - |
| 1777658339 | 15.56° C | 71% | 1026.1 hPa | - | - | - | - |
| 1777658037 | 16.11° C | 68% | 1026 hPa | - | - | - | - |
| 1777657736 | 17.22° C | 60% | 1025.9 hPa | - | - | - | - |
| 1777657435 | 18.89° C | 48% | 1025.9 hPa | - | - | - | - |
| 1777657134 | 18.89° C | 47% | 1026 hPa | - | - | - | - |
| 1777656833 | 20° C | 45% | 1025.9 hPa | - | - | - | - |
| 1777656532 | 20° C | 45% | 1025.8 hPa | - | - | - | - |
| 1777655629 | 20.56° C | 42% | 1025.8 hPa | - | - | - | - |
| 1777655328 | 20° C | 43% | 1025.8 hPa | - | - | - | - |
| 1777655027 | 20.56° C | 42% | 1025.7 hPa | - | - | - | - |
| 1777654727 | 20.56° C | 43% | 1025.8 hPa | - | - | - | - |
| 1777654426 | 20.56° C | 43% | 1025.8 hPa | - | - | - | - |
| 1777653824 | 21.11° C | 41% | 1025.8 hPa | - | - | - | - |
| 1777653221 | 20° C | 43% | 1025.9 hPa | - | - | - | - |
| 1777652918 | 18.89° C | 47% | 1026 hPa | - | - | - | - |
| 1777652314 | 18.89° C | 45% | 1026 hPa | - | - | - | - |
| 1777652011 | 18.89° C | 45% | 1026 hPa | - | - | - | - |
| 1777651710 | 18.89° C | 44% | 1026 hPa | - | - | - | - |
| 1777651407 | 19.44° C | 44% | 1026 hPa | - | - | - | - |
| 1777651102 | 20° C | 42% | 1026.1 hPa | - | - | - | - |
| 1777650801 | 20° C | 42% | 1026.1 hPa | - | - | - | - |
* Rain since midnight (hover to see other rain measurements)
** Current wind speed in m/s (hover to see current wind gust speed)